Date,TemperatureHighF,TemperatureAvgF,TemperatureLowF,DewpointHighF,DewpointAvgF,DewpointLowF,HumidityHigh,HumidityAvg,HumidityLow,PressureMaxIn,PressureMinIn,WindSpeedMaxMPH,WindSpeedAvgMPH,GustSpeedMaxMPH,PrecipitationSumIn
2013-3-1,69,61,54,47,44,36,66,54,34,0.00,40.00,10,3,14,0.00
2013-3-2,64,59,53,48,45,38,71,60,45,0.00,40.00,9,4,14,0.00
2013-3-3,62,53,47,49,44,40,100,74,50,0.00,40.00,12,6,18,0.00
2013-3-4,51,45,41,48,43,38,100,92,75,0.00,40.00,8,2,11,0.00
2013-3-5,43,39,35,43,39,35,100,100,96,0.00,40.00,33,12,45,1.28
2013-3-6,46,40,35,43,38,34,100,93,69,0.00,40.00,25,9,40,1.53
2013-3-7,47,42,37,37,32,27,90,67,51,0.00,40.00,13,6,21,0.01
2013-3-10,66,61,55,40,32,14,41,34,16,0.00,40.00,9,5,16,0.00
2013-3-11,68,62,56,46,39,18,59,43,19,0.00,40.00,9,6,12,0.00
2013-3-12,70,63,58,50,46,37,68,53,37,0.00,40.00,9,3,12,0.00
2013-3-13,72,66,60,52,46,37,59,50,32,0.00,40.00,8,3,12,0.00
2013-3-14,67,62,57,52,39,28,63,45,29,0.00,40.00,12,5,19,0.00
2013-3-15,69,63,55,49,39,17,52,42,19,0.00,40.00,19,10,28,0.00
2013-3-16,66,60,49,45,34,16,62,40,18,0.00,40.00,21,10,29,0.00
2013-3-17,65,53,42,40,34,28,65,49,31,0.00,40.00,19,8,27,0.00
2013-3-18,61,56,51,43,36,22,63,48,27,0.00,40.00,14,3,19,0.00
2013-3-19,57,52,42,48,40,25,97,66,34,0.00,40.00,14,5,24,0.13
2013-3-20,51,46,43,51,46,42,100,99,91,0.00,40.00,14,8,25,0.64
2013-3-21,58,48,37,43,38,31,100,72,49,0.00,40.00,21,8,29,0.01
2013-3-22,60,52,42,34,29,18,67,42,27,0.00,40.00,13,7,18,0.00
2013-3-23,64,54,47,38,32,25,54,44,31,0.00,40.00,9,5,14,0.00
2013-3-24,65,57,51,44,39,32,65,51,42,0.00,40.00,9,5,14,0.00
2013-3-25,54,50,44,46,41,28,100,72,38,0.00,40.00,9,4,21,0.09
2013-3-26,59,49,39,53,44,38,100,84,62,0.00,40.00,10,4,15,0.09
2013-3-27,53,48,46,50,46,41,100,93,81,0.00,40.00,11,5,16,0.00
2013-3-28,55,53,49,52,49,45,97,86,75,0.00,40.00,8,5,15,0.06
2013-3-29,68,61,53,53,48,43,80,63,48,0.00,40.00,12,8,18,0.01
2013-3-30,59,54,49,52,48,44,100,80,62,0.00,40.00,10,4,17,0.13
2013-3-31,53,49,47,53,49,47,100,99,93,0.00,40.00,12,7,19,0.84